Lapse_Rate
5.5 6.5 6.5 6.5 6.5 6.5 6.5 6.5 6.5 6.5 6.5 6.5 6.5 6.5 6.5 5.4 4.6 5.6 5.7 5.3 6.6 7.0 6.2 4.1 3.4 3.3 2.6 2.1 2.4 3.2 3.4 2.6 3.4 3.4 3.2 3.4 3.5 3.5 3.3 3.3 4.3 4.0 4.1 3.9
6.5 6.5 6.5 6.5 6.5 6.5 6.5 6.5 6.5 6.5 6.5 6.5 6.5 6.5 6.5 6.4 6.0 5.1 5.1 6.1 6.0 5.8 4.8 4.4 3.3 3.4 2.7 3.0 2.5 2.9 3.4 2.6 3.5 4.6 2.8 3.0 2.8 2.7 3.3 3.7 4.1 4.7 4.3 4.2
6.5 6.5 6.5 6.5 6.5 6.5 6.5 6.5 6.5 6.5 6.5 6.5 6.5 6.5 6.5 6.5 6.1 5.7 5.1 4.7 5.6 5.7 5.1 4.3 3.6 3.3 4.0 3.6 3.5 3.1 3.0 2.7 3.3 2.3 2.3 2.5 2.8 3.0 3.2 3.5 3.5 3.5 4.7 4.6
6.5 6.2 6.5 6.5 6.5 6.5 6.5 6.5 6.5 6.5 6.5 6.5 6.5 6.5 6.5 6.5 6.5 6.4 5.6 4.3 3.8 4.0 4.9 4.9 4.8 3.8 4.2 4.4 3.6 3.6 2.4 1.3 2.1 2.1 3.6 3.7 4.0 4.8 4.8 4.4 5.0 3.9 3.7 4.2
6.5 6.5 6.5 6.5 6.5 6.5 6.5 6.5 6.5 6.5 6.5 6.5 6.5 6.5 6.5 6.5 6.5 6.5 5.9 5.7 4.8 3.8 3.9 3.5 3.3 3.7 4.2 4.6 4.7 2.2 2.5 2.0 2.8 3.5 4.0 3.9 4.6 4.8 4.5 3.4 3.9 3.6 3.3 4.6
6.5 5.7 6.5 6.5 6.5 6.5 6.5 6.5 6.5 6.5 6.5 6.5 6.5 6.5 6.5 6.5 6.5 6.5 5.9 5.6 5.0 4.3 4.1 4.0 3.7 3.8 3.6 4.6 4.7 4.0 3.3 3.2 3.1 2.9 3.9 3.9 3.9 4.4 4.4 4.1 3.6 3.3 3.1 3.6
6.5 6.5 6.5 6.2 6.5 6.5 6.5 6.5 6.5 6.5 6.5 6.5 6.5 6.5 6.5 6.5 6.5 6.5 6.3 5.3 4.5 4.6 4.1 4.0 3.8 3.8 3.8 3.8 3.7 3.7 3.1 3.4 3.9 4.1 3.9 4.2 4.1 3.6 4.1 4.2 4.2 4.4 4.5 4.0
6.5 6.5 6.5 6.5 6.5 6.5 6.5 6.5 6.5 6.5 6.5 6.5 6.5 6.5 6.5 6.5 5.2 5.3 5.2 5.2 4.9 3.6 3.8 4.1 3.8 3.4 3.7 4.0 3.4 3.2 1.8 2.4 2.3 2.6 2.6 2.7 2.4 3.3 3.8 4.4 4.3 4.3 4.6 4.4
6.5 6.5 6.5 6.5 6.5 6.5 6.5 6.5 6.5 6.5 6.5 6.5 6.5 6.5 6.5 6.5 6.5 5.6 5.1 5.4 5.0 4.5 3.7 3.5 3.7 3.3 3.3 3.6 3.5 3.4 2.5 3.0 2.6 2.9 2.6 2.5 2.5 2.7 3.2 3.5 3.8 4.2 4.4 5.0
6.5 6.5 6.5 6.5 6.1 6.4 6.5 6.5 6.5 6.5 6.5 6.5 6.5 6.5 6.5 6.5 6.5 6.5 6.1 5.2 3.6 3.6 3.6 3.7 3.6 3.6 3.7 4.2 4.0 4.1 3.9 3.2 3.1 3.1 2.9 3.3 3.3 3.7 3.4 3.2 3.2 3.6 4.4 3.9
6.5 6.5 6.5 6.5 6.5 6.5 6.5 6.5 6.5 6.5 6.5 6.5 6.5 6.5 6.5 6.5 6.5 6.5 5.3 3.6 2.7 3.0 3.0 3.0 3.3 3.5 3.4 3.3 3.2 3.2 3.3 3.7 4.0 3.5 3.4 3.3 3.7 3.5 3.8 3.4 3.8 3.8 3.9 3.7
6.5 6.5 6.5 6.5 6.5 6.5 6.5 6.5 6.5 6.5 6.5 6.5 6.5 6.5 6.5 6.5 5.9 4.5 4.7 3.7 2.7 2.7 2.9 3.0 2.9 2.8 3.3 3.7 3.7 3.9 3.7 3.6 3.5 3.6 3.9 4.0 4.1 3.9 3.4 3.2 3.6 3.7 3.6 3.9
6.5 6.5 6.5 6.5 6.5 6.5 6.5 6.5 6.5 6.5 6.5 6.5 6.5 6.5 6.5 5.5 5.5 4.2 3.8 3.6 3.2 3.1 2.6 2.3 2.3 2.4 2.7 2.9 3.0 3.1 3.5 3.8 3.3 3.5 3.4 2.7 2.5 2.5 2.8 3.3 3.1 3.7 3.3 3.9
3.5 6.5 6.5 6.5 6.5 6.5 6.5 6.5 6.5 6.5 6.5 6.5 6.5 6.5 6.5 6.5 6.5 5.2 3.8 3.3 2.9 2.9 3.0 2.5 2.4 2.5 2.7 3.3 3.8 3.7 3.8 3.7 3.6 3.9 3.6 3.3 3.0 2.9 2.6 3.0 3.6 4.3 4.0 3.8
6.5 6.5 6.5 6.5 6.5 6.5 6.5 6.5 6.5 6.5 6.5 6.5 6.5 6.5 6.5 6.5 6.5 4.7 3.5 3.6 4.0 3.7 3.3 3.4 3.3 3.4 3.6 3.7 3.1 3.2 3.5 3.5 3.5 3.5 3.0 2.8 2.7 2.6 3.2 3.3 3.2 3.4 3.6 4.0
6.6 6.5 6.5 6.5 6.5 6.5 6.5 6.5 6.5 6.5 6.5 6.5 6.5 6.5 6.5 4.4 3.6 4.3 3.9 3.8 3.6 3.5 4.4 4.7 5.0 5.4 4.3 3.8 3.4 3.3 3.3 3.1 3.0 3.0 3.3 3.2 2.9 3.3 3.4 3.3 3.2 3.5 3.9 4.2
6.5 6.5 6.5 6.5 6.5 6.5 6.5 6.5 6.5 6.5 6.5 6.5 6.5 6.5 6.2 6.4 5.6 4.1 3.6 3.4 4.0 4.4 4.5 4.6 4.9 3.9 3.3 3.0 3.1 2.9 3.3 3.2 3.2 3.5 3.6 3.5 3.7 3.7 3.7 3.6 3.3 3.5 4.0 4.2
6.5 6.5 6.5 6.5 6.5 6.5 6.5 6.5 6.5 6.5 6.5 6.5 6.5 6.5 6.2 5.4 4.1 3.3 3.8 4.0 4.9 5.3 5.2 4.6 3.5 3.3 2.8 2.8 3.1 2.7 2.9 2.7 3.1 3.6 3.8 3.8 4.3 4.3 3.8 3.6 3.2 3.3 4.0 4.4
6.3 6.5 6.5 6.5 6.5 6.5 6.5 6.5 6.5 6.5 6.5 6.5 6.5 6.4 5.7 5.2 4.6 5.2 5.5 6.0 6.2 5.9 4.7 3.9 3.5 3.6 3.3 3.2 2.8 2.7 2.3 2.2 2.9 3.3 4.3 3.9 4.1 3.9 3.7 3.7 3.5 3.6 3.4 3.5
6.5 6.5 6.5 6.5 6.5 6.5 6.5 6.5 5.5 6.1 6.5 6.4 5.5 6.1 5.9 5.1 6.5 6.4 5.0 6.1 5.4 3.9 3.7 4.0 4.4 4.1 3.6 3.3 2.9 2.2 2.0 2.4 2.7 3.6 4.4 4.3 3.8 3.6 3.5 3.5 3.3 3.5 4.0 3.8
6.5 6.5 6.5 6.5 6.5 6.5 6.5 6.2 5.4 6.5 6.5 6.0 4.8 4.9 5.2 6.2 3.9 3.7 4.6 4.1 3.7 4.3 4.8 4.7 4.3 2.7 2.9 2.6 2.1 1.9 2.2 2.3 3.4 3.9 4.3 4.0 3.5 3.2 3.1 3.0 3.1 3.7 3.9 3.1
6.5 6.5 6.5 6.5 6.5 6.5 5.9 6.2 6.5 5.5 4.0 4.5 5.2 5.0 5.4 5.2 5.5 5.2 4.4 4.2 2.9 2.4 2.5 2.3 2.2 2.7 3.0 2.4 2.3 2.1 1.9 2.3 3.8 3.9 4.0 3.6 2.9 3.0 3.7 3.0 2.9 3.5 3.5 3.7
6.5 6.5 6.5 6.5 6.5 5.3 3.7 4.2 4.2 3.0 4.0 5.4 5.0 5.5 5.5 5.5 5.8 5.3 4.2 3.4 2.7 2.8 2.4 1.9 3.0 3.5 3.0 2.3 2.1 2.3 2.5 3.1 4.0 4.0 3.3 3.0 3.1 3.1 3.5 3.3 3.2 3.0 2.8 3.2
6.5 5.4 6.5 6.5 6.4 6.2 4.6 4.9 4.8 4.8 5.0 5.9 6.2 5.6 3.4 3.2 3.1 3.7 3.0 2.6 2.9 2.5 2.2 1.7 2.4 2.5 3.2 2.6 2.6 3.0 3.4 4.0 4.3 4.0 3.6 3.2 3.0 2.9 3.6 3.1 2.8 3.1 2.6 1.8
5.6 5.9 6.5 6.5 6.3 4.0 3.6 2.7 5.3 5.7 5.7 6.0 4.0 2.3 2.5 2.6 3.2 3.7 3.0 2.3 2.2 2.5 1.9 1.7 2.3 2.9 3.2 3.0 3.0 3.4 4.4 4.8 4.4 4.0 3.8 3.7 4.0 3.9 3.6 3.3 2.8 2.1 1.9 -0.2
5.1 6.5 6.5 6.5 4.8 4.3 4.7 3.2 2.7 1.8 2.4 3.0 2.5 3.0 3.5 3.3 3.3 3.3 2.1 1.9 1.9 3.7 3.4 3.8 3.3 3.4 3.4 3.4 3.6 3.5 3.6 3.6 3.6 3.9 4.3 4.3 4.6 4.6 4.2 4.2 4.3 -1.5 -2.3 -3.3
Wind_Speed
2 3 6 10 9 8 7 4 4 5 4 7 9 3 7 6 12 14 14 13 18 19 13 12 10 12 10 9 11 13 14 13 10 8 5 4 4 3 4 8 15 15 15 17
5 6 14 7 7 7 4 3 6 3 2 5 6 5 3 9 6 14 15 17 14 11 13 11 11 12 14 15 15 12 14 13 12 9 4 3 3 3 3 4 9 14 16 16
6 10 6 7 3 5 4 3 2 1 4 4 7 4 3 4 12 12 7 10 13 16 16 13 12 11 13 10 13 17 17 15 12 8 4 1 1 2 1 3 3 7 16 17
6 7 6 1 3 5 3 3 5 5 4 2 4 3 4 4 6 14 11 10 9 9 12 12 14 12 15 16 15 9 8 7 6 7 6 7 6 7 6 5 5 5 13 15
6 2 4 5 2 4 4 2 3 3 3 4 2 5 5 4 6 11 10 13 10 8 12 10 8 10 6 7 8 6 7 7 7 8 7 6 8 6 4 2 7 6 5 12
7 4 4 6 3 2 1 5 8 6 4 3 4 6 3 8 14 7 6 12 12 11 10 10 10 10 8 7 6 6 4 4 5 6 7 8 8 8 6 6 6 6 4 6
7 6 3 4 4 7 8 7 4 5 5 5 7 4 6 7 14 13 13 11 9 11 10 10 9 8 8 9 9 9 9 8 8 8 8 9 9 8 9 9 7 8 7 5
3 8 4 5 6 6 3 7 5 2 1 5 4 4 5 4 9 11 13 12 8 8 8 9 10 9 9 10 9 9 9 8 8 8 8 8 8 7 7 7 6 7 8 8
4 5 5 5 4 6 3 2 5 6 3 4 2 4 6 7 8 10 10 13 12 11 8 9 8 8 8 7 7 8 9 9 8 8 7 7 7 7 7 10 8 8 10 9
7 3 3 2 6 2 5 4 3 4 2 2 4 2 4 4 7 12 11 13 8 6 7 6 5 6 5 5 4 4 3 5 5 6 6 6 7 7 7 6 7 7 9 9
7 4 4 3 2 3 4 2 6 5 4 4 1 6 5 8 9 11 9 9 9 9 9 8 6 5 6 5 5 5 4 3 2 4 5 5 6 6 7 6 7 6 7 7
0 6 2 3 4 3 6 6 5 5 4 2 5 5 5 1 8 8 8 7 7 8 7 7 7 7 5 3 2 2 1 1 2 1 0 2 3 5 5 6 8 7 7 6
4 2 3 7 7 7 5 4 3 5 3 4 5 5 3 9 9 7 11 8 7 7 7 6 7 6 5 5 5 5 5 4 4 2 2 5 6 5 7 7 7 8 7 8
9 4 6 6 5 3 3 5 5 5 4 3 6 5 6 4 10 7 7 6 7 7 7 6 6 5 4 3 1 4 6 5 5 5 6 6 7 7 7 7 7 8 9 8
5 4 3 3 3 1 2 3 5 1 4 5 7 7 7 11 9 7 8 8 8 8 7 6 4 3 1 2 4 4 6 7 7 7 6 7 7 7 8 8 7 8 9 10
3 2 3 1 4 7 2 4 6 4 1 3 6 5 3 6 7 7 8 8 7 8 7 6 5 4 2 4 5 6 7 7 7 7 7 7 7 7 7 7 7 8 9 10
4 4 4 2 3 6 4 2 3 5 5 6 5 6 6 5 8 7 7 8 8 7 7 7 6 5 5 6 5 5 7 7 7 7 7 7 6 6 6 7 6 7 9 8
5 5 3 3 4 0 7 4 1 1 7 7 8 7 2 5 4 6 4 6 5 5 5 5 4 4 6 3 4 5 7 7 8 7 7 6 4 5 6 6 6 6 6 8
6 5 2 5 4 4 6 5 2 1 2 4 7 6 6 4 5 4 2 2 1 4 5 6 6 5 3 4 5 6 7 8 9 9 7 6 5 6 6 6 7 6 6 8
6 6 5 3 5 7 8 3 3 3 3 2 6 5 4 4 2 4 4 2 4 6 5 4 5 2 2 5 6 7 8 8 9 8 6 5 5 5 6 6 7 5 7 10
3 2 6 4 4 6 5 4 1 4 6 2 5 4 4 3 4 4 1 2 1 1 2 4 4 6 8 7 6 7 8 8 8 5 4 4 5 6 6 6 5 6 10 7
5 4 4 2 3 6 4 3 5 6 4 5 3 2 2 1 2 4 3 4 6 8 8 8 5 7 7 6 5 8 8 4 2 1 4 5 6 5 4 5 5 8 5 5
2 5 4 6 5 3 3 6 1 5 6 3 4 1 1 2 4 6 5 6 6 6 6 6 6 7 7 7 6 8 5 1 2 4 6 6 6 6 5 5 8 7 5 4
7 1 3 3 4 3 6 3 4 4 6 4 2 6 8 7 5 4 5 5 6 8 9 4 6 7 7 6 6 4 3 3 3 5 6 6 6 7 5 4 4 4 4 4
3 5 3 2 3 6 9 7 3 3 3 3 9 8 6 6 2 1 3 7 7 11 10 6 7 6 6 6 5 5 5 4 5 5 5 6 5 5 6 5 5 4 4 3
3 2 2 4 2 7 3 4 6 10 5 5 8 4 2 3 2 0 5 5 4 11 10 10 7 6 7 6 6 6 6 5 5 5 5 5 5 3 4 5 9 8 9 6
Wind_Direction
297 57 249 242 208 220 252 356 113 248 263 95 141 130 159 127 99 98 144 172 177 183 175 167 165 159 148 141 162 174 173 183 176 184 182 182 204 196 182 189 198 203 205 209
5 237 246 246 225 208 334 3 328 342 304 84 142 173 206 112 113 127 121 143 155 145 152 167 164 161 167 169 164 175 187 181 185 187 182 171 177 207 187 179 199 204 201 205
177 250 276 233 348 2 352 8 326 216 9 352 101 9 117 17 106 97 92 116 125 133 150 170 162 172 171 179 177 182 186 188 191 184 136 93 60 324 268 227 210 199 208 206
222 245 196 80 55 107 49 315 33 24 66 219 89 242 229 170 95 113 123 115 120 122 124 152 162 163 173 183 192 171 173 174 194 169 184 192 202 223 226 232 243 229 204 206
262 314 222 102 170 110 206 347 26 321 18 37 340 90 248 137 131 148 141 129 126 122 120 112 136 150 159 155 161 190 157 174 192 192 190 201 222 229 236 244 239 235 228 220
235 274 178 166 161 154 290 26 20 36 85 17 250 140 233 174 172 170 155 142 141 132 121 119 119 124 135 142 145 147 167 190 198 205 213 204 213 227 229 231 236 240 235 217
334 296 260 132 65 3 63 50 359 12 8 224 322 104 229 227 179 160 149 155 150 137 133 135 134 146 147 150 156 171 180 204 208 209 215 224 226 220 229 232 238 247 247 242
182 322 161 149 148 172 119 133 141 158 297 268 326 355 296 74 130 146 160 154 134 138 152 156 160 163 159 165 169 162 167 193 200 206 216 218 222 227 242 245 243 246 244 247
137 353 356 92 136 116 305 52 173 112 357 32 293 27 3 108 113 101 128 139 158 169 168 170 174 173 179 173 180 182 184 199 203 212 215 223 223 222 226 233 222 230 243 258
207 124 298 128 58 13 139 167 39 12 117 276 319 276 218 188 119 139 138 145 151 136 124 132 137 150 152 160 176 170 208 256 252 248 244 238 237 238 240 242 241 231 241 243
147 110 266 78 127 186 9 359 61 114 116 146 10 292 217 186 165 162 156 146 139 137 139 138 128 120 129 122 112 121 116 135 240 242 246 268 277 280 272 262 256 251 255 242
93 131 124 192 306 257 171 174 126 121 244 132 150 261 323 19 130 144 152 148 153 145 125 123 120 117 108 106 97 97 64 10 211 265 295 288 298 308 291 272 271 258 255 255
172 15 64 355 356 5 43 10 93 104 83 184 137 262 343 105 108 133 137 142 138 126 124 104 81 75 59 35 18 354 331 315 301 289 278 280 282 280 267 273 279 266 250 254
87 103 140 177 190 163 328 355 355 96 102 191 209 236 245 174 142 141 131 133 116 118 119 116 99 82 75 66 352 310 304 279 272 252 267 276 280 278 275 267 264 271 270 258
95 119 115 158 196 122 194 326 352 65 205 149 256 209 251 216 170 159 143 129 118 129 132 126 130 143 156 304 297 299 283 275 253 250 258 263 267 268 270 271 267 266 265 264
21 180 104 33 360 33 7 0 3 356 329 238 212 259 230 130 127 139 141 129 121 118 135 145 166 178 238 261 271 282 280 279 254 252 259 265 262 265 268 273 275 276 276 268
88 109 81 220 343 48 354 137 350 297 271 211 279 215 175 169 152 155 149 142 151 154 166 172 173 196 234 256 267 279 285 273 250 253 263 266 275 278 287 287 288 282 282 274
111 93 98 174 45 230 237 251 203 291 16 15 55 27 120 134 115 134 144 136 157 176 180 191 201 231 259 269 310 308 293 276 260 257 256 258 254 281 291 294 293 292 287 281
121 114 113 140 185 281 325 309 79 84 64 30 89 59 76 96 57 6 164 136 226 238 201 218 217 227 235 279 277 291 289 279 269 262 250 245 258 272 283 288 287 281 288 288
77 79 127 135 159 213 222 227 294 123 159 181 122 128 121 125 75 257 290 336 10 343 309 306 298 238 283 279 284 285 278 280 274 260 241 247 276 279 279 281 285 264 286 288
4 7 177 177 208 275 233 203 78 134 220 101 94 60 67 93 201 238 290 337 6 269 353 300 242 232 242 252 263 274 276 279 274 270 251 271 276 272 273 288 286 295 293 282
186 177 212 108 140 275 200 28 142 201 180 149 129 117 58 290 215 217 234 353 1 343 330 317 285 256 276 292 299 284 283 274 321 302 272 268 273 277 286 294 300 313 295 303
333 187 177 167 206 257 357 120 78 118 120 111 112 102 141 338 324 355 343 327 309 292 277 289 294 282 284 291 278 278 266 190 287 283 272 276 283 283 294 303 318 305 330 322
333 12 99 70 340 100 62 77 90 102 119 131 64 31 59 86 56 15 329 301 291 283 273 250 265 262 276 297 309 259 202 236 258 274 285 288 293 299 299 308 305 309 310 313
226 14 336 48 51 79 15 10 19 78 99 105 72 111 118 119 139 93 308 302 295 287 277 277 276 279 275 281 262 251 254 271 275 275 274 272 274 291 304 309 293 283 261 223
14 276 93 223 236 119 235 286 77 70 38 40 135 113 104 138 139 329 321 283 296 321 301 301 269 267 274 278 274 256 252 253 262 279 281 273 278 278 286 302 303 221 237 239